FW8630 Weather Reports


Display with metric or nautical units.
time (UTC)temp
F
wind
direction
speed
MPH
gust
MPH
rain 1hr
in
rain 24hr
in
rain mn
in
humidity
%
barometer
mb
20260504014603 46 98 1.0 6.0 0.00 0.00 0.00 94 1008.0
20260504013115 45 96 1.0 2.0 0.00 0.00 0.00 94 1008.4
20260504011552 45 97 1.0 10.0 0.00 0.00 0.00 94 1008.2
20260504010049 45 65 3.0 6.0 0.00 0.00 0.00 95 1008.4
20260504004616 45 70 2.0 6.0 0.00 0.00 0.00 95 1009.0
20260504003049 45 53 2.0 4.0 0.00 0.00 0.00 95 1009.3
20260504001615 45 134 1.0 3.0 0.00 0.00 0.00 95 1010.0
20260504000045 44 71 1.0 3.0 0.00 0.00 0.00 96 1009.4
20260503234540 44 71 1.0 3.0 0.00 0.00 0.00 97 1009.4
20260503233041 45 71 0.0 3.0 0.00 0.00 0.00 97 1009.4
20260503231536 45 71 1.0 4.0 0.00 0.00 0.00 97 1009.6
20260503230049 45 67 0.0 3.0 0.00 0.00 0.00 97 1009.7
20260503224531 46 67 1.0 3.0 0.00 0.00 0.00 97 1009.6
20260503223029 46 67 1.0 3.0 0.00 0.00 0.00 97 1009.8
20260503221525 47 67 0.0 3.0 0.00 0.00 0.00 96 1009.9
20260503220023 47 63 2.0 4.0 0.00 0.00 0.00 96 1010.0
20260503214521 47 59 1.0 4.0 0.00 0.00 0.00 96 1010.1
20260503213021 48 63 1.0 5.0 0.00 0.00 0.00 96 1010.1
20260503211518 48 50 2.0 4.0 0.00 0.00 0.00 96 1010.2
20260503210017 48 38 3.0 5.0 0.00 0.00 0.00 96 1010.0
20260503204514 49 31 1.0 3.0 0.00 0.00 0.00 96 1010.3
20260503203034 49 360 2.0 5.0 0.00 0.00 0.00 97 1010.2
20260503201511 49 327 1.0 3.0 0.00 0.00 0.00 97 1010.2
20260503200012 50 303 0.0 4.0 0.00 0.00 0.00 97 1010.2
20260503194517 50 221 1.0 3.0 0.00 0.00 0.00 96 1010.3
20260503193007 51 221 0.0 2.0 0.00 0.00 0.00 96 1010.0
20260503191506 51 221 0.0 2.0 0.00 0.00 0.00 96 1010.1
20260503190007 51 221 0.0 3.0 0.00 0.00 0.00 95 1010.3
20260503184505 51 222 0.0 3.0 0.00 0.00 0.00 95 1010.2
20260503183003 51 195 1.0 2.0 0.00 0.00 0.00 94 1010.0
20260503181505 51 195 1.0 3.0 0.00 0.00 0.00 95 1010.2
20260503180003 52 205 2.0 4.0 0.00 0.00 0.00 94 1010.1
20260503174502 53 252 2.0 4.0 0.00 0.00 0.00 93 1010.0
20260503173002 53 217 2.0 4.0 0.00 0.00 0.00 90 1009.7
20260503171502 54 232 3.0 5.0 0.00 0.00 0.00 89 1009.7
20260503054540 56 186 1.0 5.0 0.00 0.00 0.00 86 1011.3
20260503053035 55 186 2.0 5.0 0.00 0.00 0.00 88 1011.4
20260503051518 54 187 2.0 5.0 0.00 0.00 0.00 90 1011.5
20260503050014 53 196 3.0 6.0 0.00 0.00 0.00 91 1011.5
20260503044513 52 182 2.0 5.0 0.00 0.00 0.00 92 1011.4
20260503043019 52 200 3.0 8.0 0.00 0.00 0.00 92 1011.6
20260503041511 52 175 1.0 3.0 0.00 0.00 0.00 92 1011.7
20260503033110 51 162 1.0 6.0 0.00 0.00 0.00 92 1011.5
20260503031558 51 203 6.0 10.0 0.00 0.00 0.00 92 1011.6
20260503030131 52 197 4.0 9.0 0.00 0.00 0.00 92 1011.6
20260503021546 54 196 3.0 11.0 0.00 0.00 0.00 89 1011.3
20260503020046 54 217 6.0 15.0 0.00 0.00 0.00 87 1011.4